Vertical_Velocity
1 6 -3 -8 -3 -2 2 3 1 -4 -4 13 -2 -2 -6 -6 3 -0 -3 -3 -4 -3 -6 -1 -5 -6 2 1 0 -2 10 1 1 -2 -5 2 -5 2 2 8 -7 1 -1 0
6 -3 -8 1 1 3 2 2 -6 -7 -2 13 -2 -12 -6 -1 -9 -1 -1 -3 -4 -0 -3 -4 -1 1 -6 -1 2 -0 5 6 2 0 1 8 -6 2 4 2 4 4 3 1
-2 0 0 5 1 5 -1 2 -2 6 -5 -5 9 -12 -2 -5 1 2 -2 -6 -4 -4 -2 -1 1 -3 0 -3 -3 3 -1 2 2 1 4 8 -4 -5 -2 -0 3 3 3 -1
-3 -4 -0 2 0 4 4 -1 1 1 4 1 -1 -13 -6 -5 -5 1 -1 -2 -3 -2 -3 -4 -2 8 3 -3 6 -6 9 6 4 5 2 -3 4 5 1 7 0 2 3 -0
-5 0 2 4 -10 2 -7 1 1 1 1 6 -6 10 -21 1 -1 -3 -2 -3 -2 1 5 1 -3 -8 -8 21 6 -8 2 7 5 -1 4 -0 4 4 -1 2 3 3 1 3
-5 -1 1 -8 -2 -0 1 2 1 1 2 6 -9 8 -22 0 -2 -5 -3 2 -1 3 3 2 -2 3 4 -11 8 12 -4 6 4 4 1 1 3 -5 -1 -1 2 3 -1 -2
2 -4 1 4 6 3 5 1 0 4 6 -7 -0 8 -24 -5 -3 2 -0 -1 -2 -6 -3 -0 0 1 -1 4 -8 13 -3 5 2 -2 0 1 1 1 6 1 -2 -4 -4 -1
-1 10 2 1 -6 -6 -4 -2 -1 -0 2 -4 -1 -5 -18 -3 -1 -3 -1 -2 -0 -4 4 -4 -5 8 1 -2 3 3 1 5 5 1 1 7 -4 1 1 2 1 2 1 0
1 -1 1 -0 -1 2 -0 4 -9 7 0 11 -5 -18 -6 -2 -5 -2 -1 -1 -3 2 -3 3 -5 -4 4 6 -4 -3 1 8 5 5 1 6 -2 2 1 -0 2 2 1 3
0 1 -1 1 6 0 -2 2 1 3 1 -1 -6 -5 -12 -2 -5 -2 -1 -1 1 -4 1 -2 -4 -2 3 0 5 1 6 9 2 7 5 -0 0 0 2 2 3 2 -2 4
-1 3 8 1 1 -6 9 3 2 6 2 3 0 -15 2 -0 1 1 -2 -1 -2 -1 -0 -0 -4 -3 0 3 2 5 4 5 3 5 -0 -1 0 5 1 2 7 -4 5 -1
-6 -1 0 -10 -7 -2 -2 -6 -1 6 -6 -1 5 -35 0 0 -0 0 -1 -1 -1 1 2 1 -5 -1 -3 5 3 6 9 3 8 8 -1 1 3 3 3 5 -3 2 -0 1
-1 -1 -0 1 5 4 3 -5 -0 0 5 -8 14 -28 -0 -1 -0 -5 0 -2 1 -1 -2 2 -6 4 -4 5 4 4 5 6 5 3 -0 1 5 0 5 -1 2 4 1 1
4 1 0 1 5 2 2 -0 -1 5 6 -9 -13 -16 -13 -7 -1 -4 -1 -4 2 10 -1 -1 -3 5 -2 1 6 3 6 5 2 1 1 2 5 1 4 0 -1 -3 -3 1
1 0 5 -4 -1 3 1 1 -2 6 -8 12 -24 4 -10 -3 1 -2 -4 3 2 -4 -0 0 -1 3 -3 4 6 6 1 4 4 3 3 2 0 6 3 3 -0 9 -5 -4
0 -3 1 -5 -2 3 1 -2 0 -0 -3 1 3 -12 1 -7 -0 -2 -3 4 -1 2 1 4 0 -3 1 8 4 1 3 3 4 4 4 2 0 -0 1 -0 -6 5 -7 -1
1 0 1 -4 1 -1 4 -1 -1 -2 0 4 2 -12 -1 -5 -1 0 -1 -1 -2 -1 5 3 1 0 2 -1 -1 1 3 3 3 4 6 3 5 -4 -11 2 -2 5 -1 -3
1 1 1 -2 -2 2 3 -0 2 3 -1 -1 -3 -2 1 2 -2 1 -1 -1 -5 -4 -3 6 1 -0 1 1 2 4 5 5 5 -1 -3 -12 3 -2 -0 -10 2 6 -9 0
2 1 -1 3 1 -11 -3 -2 1 1 -7 0 2 -2 -1 -2 -1 -3 -4 1 -2 3 11 3 0 0 1 3 6 5 2 5 3 4 11 -14 13 2 0 -5 9 -10 0 0
3 3 4 -1 2 1 4 0 -0 1 1 2 2 1 1 1 1 1 -1 2 3 -1 4 -5 0 1 3 2 2 4 4 -0 -5 -4 -1 3 8 1 2 2 -8 0 -1 -2
1 1 -1 -1 0 -9 -2 1 0 9 11 1 2 2 0 -0 4 0 3 3 -0 2 1 6 5 -1 -1 2 5 -2 -5 4 -4 1 5 -5 5 1 -6 -2 1 0 -0 -1
-5 -3 -1 3 2 -5 0 -1 7 9 -5 2 -1 -0 -1 1 2 1 -0 1 2 5 11 8 1 4 6 6 3 1 1 6 4 -3 -2 0 -2 -2 -0 -0 -1 -1 -1 -2
3 -4 0 -5 -9 -1 2 0 -1 2 2 0 -1 1 -1 -0 2 0 -1 -0 1 1 2 4 3 -0 5 3 9 -1 0 0 -2 -1 -1 -0 1 1 0 -0 -0 -2 -2 -1
0 -0 1 3 -1 -1 0 -2 0 -0 2 -1 -0 1 -0 -0 2 2 1 1 -1 0 1 3 3 -0 -3 2 0 3 -3 -1 0 0 1 1 1 -0 0 -0 -1 -2 -2 -2
3 3 -1 -5 -4 0 -0 -1 -1 -0 1 -0 -0 2 1 -0 1 1 1 0 2 1 2 2 1 -1 -1 2 -0 1 1 1 -1 1 -0 -1 -1 -2 -2 -3 -3 -2 -2 1
-3 -6 0 -5 4 3 2 -1 -0 -0 2 -1 1 1 1 1 -1 -0 -0 0 1 1 1 1 1 1 -1 0 0 1 1 0 -1 -2 -1 -1 -2 -3 -3 -2 -3 1 1 -1
Height
1471 1471 1468 1462 1462 1459 1459 1464 1459 1454 1457 1459 1453 1446 1443 1442 1440 1439 1439 1440 1439 1440 1442 1443 1444 1447 1449 1452 1454 1457 1460 1462 1464 1468 1471 1475 1478 1483 1487 1488 1490 1493 1496 1499
1474 1470 1463 1463 1465 1465 1467 1466 1463 1458 1458 1459 1451 1434 1435 1432 1424 1427 1430 1430 1431 1432 1432 1434 1435 1438 1440 1443 1446 1450 1453 1455 1456 1460 1464 1469 1471 1475 1478 1479 1483 1487 1491 1495
1462 1459 1465 1465 1467 1469 1467 1468 1468 1469 1463 1458 1452 1429 1413 1408 1411 1414 1417 1420 1422 1422 1422 1424 1426 1428 1431 1433 1437 1440 1444 1447 1449 1453 1458 1462 1463 1466 1468 1472 1477 1482 1486 1490
1461 1459 1466 1466 1466 1466 1465 1460 1463 1467 1470 1460 1457 1440 1418 1410 1407 1406 1409 1411 1411 1413 1414 1416 1418 1419 1421 1424 1429 1433 1437 1439 1442 1447 1449 1450 1451 1455 1459 1465 1471 1476 1482 1485
1460 1462 1464 1468 1465 1465 1468 1467 1469 1467 1467 1469 1457 1467 1406 1407 1407 1405 1404 1404 1404 1406 1407 1408 1410 1412 1413 1418 1421 1424 1430 1433 1435 1439 1443 1445 1449 1453 1455 1462 1467 1471 1478 1483
1456 1462 1464 1463 1465 1466 1469 1468 1470 1469 1473 1468 1443 1441 1400 1400 1393 1388 1389 1395 1403 1403 1404 1405 1405 1405 1405 1409 1413 1415 1421 1425 1428 1433 1436 1440 1445 1446 1449 1456 1462 1467 1473 1478
1460 1458 1463 1464 1465 1466 1468 1474 1464 1467 1471 1450 1419 1427 1409 1395 1398 1395 1396 1397 1401 1403 1402 1401 1399 1399 1400 1401 1405 1409 1413 1418 1420 1425 1432 1436 1440 1442 1447 1452 1458 1463 1469 1475
1460 1453 1452 1460 1461 1460 1465 1468 1460 1449 1435 1424 1414 1418 1399 1387 1390 1393 1392 1395 1397 1399 1397 1397 1394 1392 1393 1395 1399 1403 1408 1413 1415 1418 1427 1434 1435 1438 1444 1449 1455 1461 1467 1472
1449 1453 1449 1454 1455 1459 1464 1470 1461 1462 1452 1449 1418 1401 1388 1386 1385 1382 1386 1392 1395 1397 1397 1392 1389 1387 1388 1390 1393 1397 1402 1407 1410 1415 1422 1428 1430 1436 1440 1446 1452 1459 1465 1469
1445 1453 1450 1453 1457 1458 1459 1457 1467 1469 1458 1432 1399 1389 1386 1380 1377 1377 1382 1390 1392 1396 1394 1388 1385 1383 1382 1385 1388 1393 1398 1402 1407 1413 1417 1422 1427 1432 1438 1443 1450 1456 1462 1468
1448 1451 1455 1459 1455 1447 1457 1460 1461 1454 1450 1431 1412 1381 1374 1377 1379 1379 1385 1388 1392 1393 1390 1386 1382 1380 1380 1381 1384 1389 1395 1400 1405 1410 1412 1417 1423 1430 1436 1442 1448 1453 1461 1467
1447 1452 1453 1447 1440 1442 1441 1449 1452 1452 1434 1436 1430 1393 1381 1382 1380 1384 1384 1386 1388 1389 1387 1384 1380 1377 1378 1380 1382 1388 1392 1398 1404 1408 1409 1415 1422 1428 1435 1441 1447 1455 1460 1465
1445 1453 1447 1441 1438 1438 1441 1438 1437 1439 1439 1427 1427 1387 1370 1383 1381 1381 1381 1381 1382 1384 1384 1382 1380 1375 1378 1380 1382 1387 1392 1397 1402 1404 1408 1413 1421 1426 1435 1441 1448 1454 1460 1465
1444 1445 1445 1433 1431 1436 1447 1436 1433 1441 1431 1411 1397 1382 1372 1374 1374 1380 1377 1378 1376 1377 1379 1381 1378 1377 1378 1381 1383 1388 1392 1395 1398 1403 1407 1414 1421 1427 1435 1440 1447 1453 1459 1465
1446 1450 1444 1440 1434 1433 1431 1426 1420 1426 1420 1415 1386 1388 1372 1375 1372 1370 1372 1371 1373 1375 1377 1377 1377 1377 1378 1381 1384 1388 1391 1394 1398 1403 1409 1416 1423 1430 1435 1441 1448 1453 1456 1463
1444 1444 1442 1437 1424 1418 1412 1406 1408 1407 1404 1398 1395 1386 1381 1372 1367 1367 1366 1365 1369 1370 1372 1374 1375 1376 1378 1382 1383 1386 1390 1394 1399 1404 1410 1416 1423 1430 1437 1443 1451 1453 1455 1461
1442 1444 1441 1424 1416 1410 1402 1408 1405 1402 1399 1396 1387 1375 1368 1365 1363 1363 1367 1368 1369 1369 1369 1372 1372 1375 1378 1380 1382 1385 1390 1394 1399 1404 1411 1418 1423 1430 1438 1444 1451 1453 1454 1461
1436 1438 1439 1430 1415 1405 1392 1393 1395 1397 1392 1389 1382 1370 1367 1366 1367 1365 1365 1364 1365 1365 1367 1368 1370 1373 1377 1379 1383 1386 1392 1396 1401 1408 1414 1422 1430 1433 1440 1448 1453 1453 1456 1460
1435 1435 1433 1427 1417 1401 1384 1385 1389 1392 1388 1383 1379 1372 1369 1368 1367 1365 1365 1361 1359 1358 1361 1366 1368 1372 1376 1380 1385 1389 1394 1401 1407 1413 1418 1421 1434 1436 1440 1448 1449 1453 1457 1457
1430 1432 1435 1423 1427 1407 1383 1384 1387 1386 1381 1377 1375 1371 1369 1368 1362 1368 1366 1363 1361 1362 1365 1365 1370 1374 1379 1384 1389 1394 1399 1405 1410 1417 1426 1434 1437 1438 1441 1446 1450 1453 1454 1455
1430 1433 1431 1431 1427 1400 1381 1383 1385 1379 1379 1376 1377 1374 1372 1370 1375 1374 1371 1369 1367 1368 1368 1371 1375 1378 1383 1390 1396 1398 1403 1409 1414 1422 1427 1434 1438 1439 1443 1448 1450 1452 1453 1454
1414 1419 1423 1427 1423 1409 1383 1381 1384 1379 1377 1378 1377 1376 1375 1375 1376 1374 1374 1374 1375 1376 1378 1380 1381 1388 1394 1399 1403 1407 1412 1416 1420 1426 1432 1436 1439 1442 1445 1448 1449 1451 1452 1452
1407 1397 1398 1401 1394 1381 1383 1383 1381 1380 1378 1377 1377 1376 1374 1376 1375 1378 1378 1380 1381 1382 1383 1385 1388 1392 1398 1403 1407 1409 1414 1420 1425 1431 1434 1438 1441 1443 1446 1447 1449 1450 1450 1450
1397 1396 1397 1396 1381 1382 1381 1380 1380 1379 1377 1375 1375 1376 1377 1378 1380 1381 1382 1384 1385 1388 1390 1393 1395 1397 1401 1407 1412 1416 1420 1425 1430 1433 1437 1440 1442 1444 1446 1448 1449 1449 1449 1448
1395 1397 1392 1388 1383 1380 1382 1382 1380 1379 1377 1375 1375 1376 1378 1379 1382 1383 1385 1387 1389 1391 1394 1397 1399 1402 1406 1412 1416 1421 1425 1429 1433 1436 1439 1441 1444 1446 1447 1448 1448 1448 1447 1446
1391 1388 1389 1382 1381 1383 1381 1382 1380 1379 1378 1377 1377 1377 1379 1381 1382 1385 1387 1390 1392 1395 1398 1401 1404 1407 1412 1417 1422 1426 1430 1433 1436 1438 1441 1443 1445 1447 1448 1448 1447 1446 1444 1443